Torna al catalogo

CZ-6A DEB

AttivoPO
NORAD 61128·DEBRIS·🇨🇳 China

Lanciato Aug 6, 2024 da Taiyuan Satellite Launch Center

Loading…

Prossimi Passaggi (prossime 24 ore)

TLE

AggiornatoSource: Space-Track

Epoca: Sep 14, 2026, 00:49 UTC

1 61128U 24140PW  26257.03458522  .00001991  00000-0  34832-3 0  9993
2 61128  89.1388 272.6344 0118293 294.9780  63.9184 14.63002462109928

Traccia CZ-6A DEB in tempo reale con AllMySat

Download on the App Store